THORAD AGENA D DEB, 4651

Orbit data source: Space-Track

THORAD AGENA D DEB, 4651 is space debris in SSO originally from a launch on Wed, 08 Apr 1970 UTC launched from the Air Force Western Test Range (AFWTR). Debris objects in space refer to the collection of defunct objects orbiting the Earth. Examples of debris include non-operational satellites, rocket bodies, and fragments generated from explosions, collisions, or faulty payload assembly.

Loading next visibility...
Identifier
4651, 1970-025AK
Orbit
SSO
Country
Flag of USUS
Related business
Manufacturer
Unknown
Mission
Spacecraft
Bus & Motor
Unknown
Mass
Unknown
Launch date (UTC)
1970-04-08 (56 years ago)
Launch vehicle
Unknown
Launch site
Air Force Western Test Range (AFWTR)
Object type
Payload
Rocket body
Debris
Shape & HBR
Unknown shape, 0.2 m
Radar Cross Section
Small (<0.1 m²)

Expand to show TLE details & history
Last TLE update: 9 hours ago

TLE from 9 hours ago
0 THORAD AGENA D DEB
1  4651U 70025AK  26063.27987618  .00002281  00000-0  14979-2 0  9990
2  4651 100.1402   5.0744 0043730   6.8053 353.3694 14.02740939821019
Epoch: 2026-03-04T06:43Z
TLE epoch observation values (Epoch: 2026-03-04T06:43:01.301Z)
Latitude
-0.00005°
Longitude
102.27213°
Altitude
855.611 km
Speed
7.441 km/s
True Right ascension
00h 20m 17s
True Declination
0° 00' 00"
Sunlit
Object was in daylight at epoch
Visualization orbit readout
Latitude
Unknown
Longitude
Unknown
Altitude
Unknown
Speed
Unknown
Apparent Right ascension
Unknown
Apparent Declination
Unknown
Sunlit
N/A
Visualization observer readout
Local Sidereal Time
19:47:28
Azimuth
Unknown
Elevation
Unknown
Doppler factor
Unknown
Orbital elements
Apogee altitude
913.321 km
Perigee altitude
849.827 km
Semi-major axis
7,259.711 km
Eccentricity
0.00437
Inclination
100.1402°
RAAN
5.0744°
Arg. of periapsis
6.8053°
True anomaly
353.31122°
Mean anomaly
353.3694°
Eccentric anomaly
353.34034°
Mean motion
3.50884 °/min
Orbital period
102.6 mins
BSTAR
0.0014979

Documentation

Showing up to 5 results
|